Today
| Time | Wind Dr | Wind Spd mph |
Wind Gust mph |
Hum In % |
Humid % |
TempI F |
Temp F |
Raw Bar in |
Tot Rain in |
UV | Solar W/sqm |
DailyRain in |
HourRain in |
24HrRain in |
RainRate in |
|---|---|---|---|---|---|---|---|---|---|---|---|---|---|---|---|
| 05/10/26 12:01:23 AM | 37 | 0.0 | 0.0 | 52 | 73 | 73.5 | 63.4 | 29.905 | 7.26 | 0.0 | 0 | 0.00 | 0.00 | 0.00 | 0.00 |
| 05/10/26 12:02:36 AM | 32 | 0.0 | 0.0 | 52 | 73 | 73.5 | 63.4 | 29.905 | 7.26 | 0.0 | 0 | 0.00 | 0.00 | 0.00 | 0.00 |
| 05/10/26 12:03:27 AM | 38 | 0.0 | 0.0 | 52 | 73 | 73.5 | 63.3 | 29.904 | 7.26 | 0.0 | 0 | 0.00 | 0.00 | 0.00 | 0.00 |
| 05/10/26 12:04:19 AM | 35 | 0.0 | 0.0 | 52 | 73 | 73.5 | 63.3 | 29.906 | 7.26 | 0.0 | 0 | 0.00 | 0.00 | 0.00 | 0.00 |
| 05/10/26 12:05:31 AM | 38 | 0.0 | 0.0 | 52 | 73 | 73.5 | 63.2 | 29.906 | 7.26 | 0.0 | 0 | 0.00 | 0.00 | 0.00 | 0.00 |
| 05/10/26 12:06:20 AM | 38 | 0.0 | 0.0 | 52 | 73 | 73.5 | 63.2 | 29.908 | 7.26 | 0.0 | 0 | 0.00 | 0.00 | 0.00 | 0.00 |
| 05/10/26 12:07:32 AM | 38 | 0.0 | 0.0 | 52 | 73 | 73.5 | 63.1 | 29.907 | 7.26 | 0.0 | 0 | 0.00 | 0.00 | 0.00 | 0.00 |
| 05/10/26 12:08:23 AM | 38 | 0.0 | 0.0 | 52 | 73 | 73.5 | 63.1 | 29.906 | 7.26 | 0.0 | 0 | 0.00 | 0.00 | 0.00 | 0.00 |
| 05/10/26 12:09:33 AM | 32 | 0.0 | 0.0 | 52 | 73 | 73.5 | 63.1 | 29.906 | 7.26 | 0.0 | 0 | 0.00 | 0.00 | 0.00 | 0.00 |
| 05/10/26 12:10:27 AM | 34 | 0.0 | 0.0 | 52 | 73 | 73.5 | 63.1 | 29.905 | 7.26 | 0.0 | 0 | 0.00 | 0.00 | 0.00 | 0.00 |
| 05/10/26 12:11:19 AM | 37 | 0.0 | 0.0 | 52 | 73 | 73.5 | 63.0 | 29.905 | 7.26 | 0.0 | 0 | 0.00 | 0.00 | 0.00 | 0.00 |
| 05/10/26 12:12:25 AM | 30 | 0.0 | 0.0 | 52 | 73 | 73.5 | 63.0 | 29.905 | 7.26 | 0.0 | 0 | 0.00 | 0.00 | 0.00 | 0.00 |
| 05/10/26 12:13:20 AM | 34 | 0.0 | 0.0 | 52 | 73 | 73.5 | 62.9 | 29.906 | 7.26 | 0.0 | 0 | 0.00 | 0.00 | 0.00 | 0.00 |
| 05/10/26 12:14:29 AM | 37 | 0.0 | 0.0 | 52 | 73 | 73.5 | 62.9 | 29.905 | 7.26 | 0.0 | 0 | 0.00 | 0.00 | 0.00 | 0.00 |
| 05/10/26 12:15:24 AM | 34 | 0.0 | 0.0 | 52 | 73 | 73.5 | 62.9 | 29.905 | 7.26 | 0.0 | 0 | 0.00 | 0.00 | 0.00 | 0.00 |
| 05/10/26 12:16:33 AM | 38 | 0.0 | 0.0 | 52 | 73 | 73.5 | 62.8 | 29.905 | 7.26 | 0.0 | 0 | 0.00 | 0.00 | 0.00 | 0.00 |
| 05/10/26 12:17:21 AM | 36 | 0.0 | 0.0 | 52 | 73 | 73.5 | 62.8 | 29.906 | 7.26 | 0.0 | 0 | 0.00 | 0.00 | 0.00 | 0.00 |
| 05/10/26 12:18:34 AM | 34 | 0.0 | 0.0 | 52 | 74 | 73.5 | 62.7 | 29.906 | 7.26 | 0.0 | 0 | 0.00 | 0.00 | 0.00 | 0.00 |
| 05/10/26 12:19:26 AM | 34 | 0.0 | 0.0 | 52 | 74 | 73.5 | 62.7 | 29.906 | 7.26 | 0.0 | 0 | 0.00 | 0.00 | 0.00 | 0.00 |
| 05/10/26 12:20:18 AM | 35 | 0.0 | 0.0 | 52 | 74 | 73.5 | 62.7 | 29.907 | 7.26 | 0.0 | 0 | 0.00 | 0.00 | 0.00 | 0.00 |
| 05/10/26 12:21:31 AM | 38 | 0.0 | 0.0 | 52 | 74 | 73.5 | 62.6 | 29.907 | 7.26 | 0.0 | 0 | 0.00 | 0.00 | 0.00 | 0.00 |
| 05/10/26 12:22:17 AM | 38 | 0.0 | 0.0 | 52 | 74 | 73.5 | 62.6 | 29.906 | 7.26 | 0.0 | 0 | 0.00 | 0.00 | 0.00 | 0.00 |
| 05/10/26 12:23:30 AM | 38 | 0.0 | 0.0 | 52 | 74 | 73.5 | 62.6 | 29.908 | 7.26 | 0.0 | 0 | 0.00 | 0.00 | 0.00 | 0.00 |
| 05/10/26 12:24:22 AM | 36 | 0.0 | 0.0 | 52 | 74 | 73.5 | 62.6 | 29.909 | 7.26 | 0.0 | 0 | 0.00 | 0.00 | 0.00 | 0.00 |
| 05/10/26 12:25:35 AM | 30 | 0.0 | 0.0 | 52 | 74 | 73.5 | 62.5 | 29.907 | 7.26 | 0.0 | 0 | 0.00 | 0.00 | 0.00 | 0.00 |
| 05/10/26 12:26:27 AM | 38 | 0.0 | 0.0 | 52 | 74 | 73.5 | 62.5 | 29.907 | 7.26 | 0.0 | 0 | 0.00 | 0.00 | 0.00 | 0.00 |
| 05/10/26 12:27:16 AM | 38 | 0.0 | 0.0 | 52 | 74 | 73.4 | 62.5 | 29.904 | 7.26 | 0.0 | 0 | 0.00 | 0.00 | 0.00 | 0.00 |
| 05/10/26 12:28:23 AM | 35 | 0.0 | 0.0 | 52 | 74 | 73.5 | 62.5 | 29.904 | 7.26 | 0.0 | 0 | 0.00 | 0.00 | 0.00 | 0.00 |
| 05/10/26 12:29:33 AM | 32 | 0.0 | 0.0 | 52 | 74 | 73.4 | 62.4 | 29.904 | 7.26 | 0.0 | 0 | 0.00 | 0.00 | 0.00 | 0.00 |
| 05/10/26 12:30:28 AM | 37 | 0.0 | 0.0 | 52 | 74 | 73.4 | 62.4 | 29.906 | 7.26 | 0.0 | 0 | 0.00 | 0.00 | 0.00 | 0.00 |
| 05/10/26 12:31:16 AM | 32 | 0.0 | 0.0 | 52 | 74 | 73.5 | 62.3 | 29.902 | 7.26 | 0.0 | 0 | 0.00 | 0.00 | 0.00 | 0.00 |
| 05/10/26 12:32:29 AM | 37 | 0.0 | 0.0 | 52 | 74 | 73.5 | 62.3 | 29.904 | 7.26 | 0.0 | 0 | 0.00 | 0.00 | 0.00 | 0.00 |
| 05/10/26 12:33:18 AM | 38 | 0.0 | 0.0 | 52 | 74 | 73.5 | 62.3 | 29.905 | 7.26 | 0.0 | 0 | 0.00 | 0.00 | 0.00 | 0.00 |
| 05/10/26 12:34:31 AM | 35 | 0.0 | 0.0 | 52 | 74 | 73.4 | 62.3 | 29.905 | 7.26 | 0.0 | 0 | 0.00 | 0.00 | 0.00 | 0.00 |
| 05/10/26 12:35:23 AM | 37 | 0.0 | 0.0 | 52 | 74 | 73.4 | 62.2 | 29.904 | 7.26 | 0.0 | 0 | 0.00 | 0.00 | 0.00 | 0.00 |
| 05/10/26 12:36:33 AM | 37 | 0.0 | 0.0 | 52 | 74 | 73.4 | 62.2 | 29.906 | 7.26 | 0.0 | 0 | 0.00 | 0.00 | 0.00 | 0.00 |
| 05/10/26 12:37:25 AM | 37 | 0.0 | 0.0 | 52 | 74 | 73.4 | 62.2 | 29.907 | 7.26 | 0.0 | 0 | 0.00 | 0.00 | 0.00 | 0.00 |
| 05/10/26 12:38:32 AM | 37 | 0.0 | 0.0 | 52 | 74 | 73.4 | 62.2 | 29.904 | 7.26 | 0.0 | 0 | 0.00 | 0.00 | 0.00 | 0.00 |
| 05/10/26 12:39:27 AM | 37 | 0.0 | 0.0 | 52 | 74 | 73.5 | 62.2 | 29.904 | 7.26 | 0.0 | 0 | 0.00 | 0.00 | 0.00 | 0.00 |
| 05/10/26 12:40:19 AM | 37 | 0.0 | 0.0 | 52 | 74 | 73.4 | 62.2 | 29.906 | 7.26 | 0.0 | 0 | 0.00 | 0.00 | 0.00 | 0.00 |
| 05/10/26 12:41:32 AM | 34 | 0.0 | 0.0 | 52 | 75 | 73.5 | 62.1 | 29.902 | 7.26 | 0.0 | 0 | 0.00 | 0.00 | 0.00 | 0.00 |
| 05/10/26 12:42:24 AM | 37 | 0.0 | 0.0 | 52 | 75 | 73.5 | 62.1 | 29.905 | 7.26 | 0.0 | 0 | 0.00 | 0.00 | 0.00 | 0.00 |
| 05/10/26 12:43:31 AM | 38 | 0.0 | 0.0 | 52 | 75 | 73.5 | 62.0 | 29.903 | 7.26 | 0.0 | 0 | 0.00 | 0.00 | 0.00 | 0.00 |
| 05/10/26 12:44:23 AM | 36 | 0.0 | 0.0 | 52 | 75 | 73.5 | 62.0 | 29.903 | 7.26 | 0.0 | 0 | 0.00 | 0.00 | 0.00 | 0.00 |
| 05/10/26 12:45:57 AM | 36 | 0.0 | 0.0 | 52 | 75 | 73.5 | 62.0 | 29.906 | 7.26 | 0.0 | 0 | 0.00 | 0.00 | 0.00 | 0.00 |
| 05/10/26 12:46:28 AM | 38 | 0.0 | 0.0 | 52 | 75 | 73.5 | 62.0 | 29.902 | 7.26 | 0.0 | 0 | 0.00 | 0.00 | 0.00 | 0.00 |
| 05/10/26 12:47:20 AM | 38 | 0.0 | 0.0 | 52 | 75 | 73.4 | 62.0 | 29.902 | 7.26 | 0.0 | 0 | 0.00 | 0.00 | 0.00 | 0.00 |
| 05/10/26 12:48:33 AM | 38 | 0.0 | 0.0 | 52 | 75 | 73.4 | 62.0 | 29.904 | 7.26 | 0.0 | 0 | 0.00 | 0.00 | 0.00 | 0.00 |
| 05/10/26 12:49:21 AM | 38 | 0.0 | 0.0 | 52 | 76 | 73.4 | 62.0 | 29.905 | 7.26 | 0.0 | 0 | 0.00 | 0.00 | 0.00 | 0.00 |
| 05/10/26 12:50:34 AM | 38 | 0.0 | 0.0 | 52 | 76 | 73.4 | 61.9 | 29.902 | 7.26 | 0.0 | 0 | 0.00 | 0.00 | 0.00 | 0.00 |
| 05/10/26 12:51:23 AM | 37 | 0.0 | 0.0 | 52 | 76 | 73.5 | 61.9 | 29.903 | 7.26 | 0.0 | 0 | 0.00 | 0.00 | 0.00 | 0.00 |
| 05/10/26 12:52:36 AM | 32 | 0.0 | 0.0 | 52 | 76 | 73.4 | 61.9 | 29.902 | 7.26 | 0.0 | 0 | 0.00 | 0.00 | 0.00 | 0.00 |
| 05/10/26 12:53:28 AM | 34 | 0.0 | 0.0 | 52 | 76 | 73.4 | 61.9 | 29.904 | 7.26 | 0.0 | 0 | 0.00 | 0.00 | 0.00 | 0.00 |
| 05/10/26 12:54:20 AM | 38 | 0.0 | 0.0 | 52 | 76 | 73.4 | 61.8 | 29.903 | 7.26 | 0.0 | 0 | 0.00 | 0.00 | 0.00 | 0.00 |
| 05/10/26 12:55:30 AM | 31 | 0.0 | 0.0 | 52 | 76 | 73.3 | 61.8 | 29.906 | 7.26 | 0.0 | 0 | 0.00 | 0.00 | 0.00 | 0.00 |
| 05/10/26 12:56:22 AM | 37 | 0.0 | 0.0 | 52 | 76 | 73.3 | 61.8 | 29.903 | 7.26 | 0.0 | 0 | 0.00 | 0.00 | 0.00 | 0.00 |
| 05/10/26 12:57:35 AM | 32 | 0.0 | 0.0 | 52 | 76 | 73.3 | 61.8 | 29.904 | 7.26 | 0.0 | 0 | 0.00 | 0.00 | 0.00 | 0.00 |
| 05/10/26 12:58:27 AM | 32 | 0.0 | 0.0 | 52 | 76 | 73.4 | 61.8 | 29.901 | 7.26 | 0.0 | 0 | 0.00 | 0.00 | 0.00 | 0.00 |
| 05/10/26 12:59:22 AM | 38 | 0.0 | 0.0 | 52 | 76 | 73.3 | 61.8 | 29.902 | 7.26 | 0.0 | 0 | 0.00 | 0.00 | 0.00 | 0.00 |
| 05/10/26 1:00:53 AM | 38 | 0.0 | 0.0 | 52 | 76 | 73.4 | 61.8 | 29.901 | 7.26 | 0.0 | 0 | 0.00 | 0.00 | 0.00 | 0.00 |
| 05/10/26 1:01:24 AM | 37 | 0.0 | 0.0 | 52 | 76 | 73.3 | 61.8 | 29.900 | 7.26 | 0.0 | 0 | 0.00 | 0.00 | 0.00 | 0.00 |
| 05/10/26 1:02:34 AM | 38 | 0.0 | 0.0 | 52 | 76 | 73.3 | 61.7 | 29.900 | 7.26 | 0.0 | 0 | 0.00 | 0.00 | 0.00 | 0.00 |
| 05/10/26 1:03:26 AM | 36 | 0.0 | 0.0 | 52 | 76 | 73.3 | 61.7 | 29.901 | 7.26 | 0.0 | 0 | 0.00 | 0.00 | 0.00 | 0.00 |
| 05/10/26 1:04:18 AM | 34 | 0.0 | 0.0 | 52 | 76 | 73.3 | 61.7 | 29.901 | 7.26 | 0.0 | 0 | 0.00 | 0.00 | 0.00 | 0.00 |
| 05/10/26 1:05:31 AM | 38 | 0.0 | 0.0 | 52 | 76 | 73.3 | 61.7 | 29.902 | 7.26 | 0.0 | 0 | 0.00 | 0.00 | 0.00 | 0.00 |
| 05/10/26 1:06:20 AM | 36 | 0.0 | 0.0 | 52 | 76 | 73.3 | 61.6 | 29.899 | 7.26 | 0.0 | 0 | 0.00 | 0.00 | 0.00 | 0.00 |
| 05/10/26 1:07:33 AM | 37 | 0.0 | 0.0 | 52 | 76 | 73.3 | 61.6 | 29.901 | 7.26 | 0.0 | 0 | 0.00 | 0.00 | 0.00 | 0.00 |
| 05/10/26 1:08:25 AM | 37 | 0.0 | 0.0 | 52 | 77 | 73.3 | 61.6 | 29.902 | 7.26 | 0.0 | 0 | 0.00 | 0.00 | 0.00 | 0.00 |
| 05/10/26 1:09:35 AM | 39 | 0.0 | 0.0 | 52 | 77 | 73.3 | 61.6 | 29.899 | 7.26 | 0.0 | 0 | 0.00 | 0.00 | 0.00 | 0.00 |
| 05/10/26 1:10:30 AM | 35 | 0.0 | 0.0 | 52 | 77 | 73.3 | 61.6 | 29.902 | 7.26 | 0.0 | 0 | 0.00 | 0.00 | 0.00 | 0.00 |
| 05/10/26 1:11:16 AM | 36 | 0.0 | 0.0 | 52 | 77 | 73.3 | 61.6 | 29.899 | 7.26 | 0.0 | 0 | 0.00 | 0.00 | 0.00 | 0.00 |
| 05/10/26 1:12:29 AM | 38 | 0.0 | 0.0 | 52 | 77 | 73.3 | 61.6 | 29.900 | 7.26 | 0.0 | 0 | 0.00 | 0.00 | 0.00 | 0.00 |
| 05/10/26 1:13:21 AM | 38 | 0.0 | 0.0 | 52 | 77 | 73.3 | 61.6 | 29.899 | 7.26 | 0.0 | 0 | 0.00 | 0.00 | 0.00 | 0.00 |
| 05/10/26 1:14:31 AM | 38 | 0.0 | 0.0 | 52 | 77 | 73.3 | 61.5 | 29.898 | 7.26 | 0.0 | 0 | 0.00 | 0.00 | 0.00 | 0.00 |
| 05/10/26 1:15:26 AM | 36 | 0.0 | 0.0 | 52 | 77 | 73.2 | 61.5 | 29.900 | 7.26 | 0.0 | 0 | 0.00 | 0.00 | 0.00 | 0.00 |
| 05/10/26 1:16:18 AM | 35 | 0.0 | 0.0 | 52 | 77 | 73.3 | 61.5 | 29.899 | 7.26 | 0.0 | 0 | 0.00 | 0.00 | 0.00 | 0.00 |
| 05/10/26 1:17:25 AM | 38 | 0.0 | 0.0 | 52 | 77 | 73.3 | 61.5 | 29.899 | 7.26 | 0.0 | 0 | 0.00 | 0.00 | 0.00 | 0.00 |
| 05/10/26 1:18:35 AM | 35 | 0.0 | 0.0 | 52 | 77 | 73.3 | 61.4 | 29.899 | 7.26 | 0.0 | 0 | 0.00 | 0.00 | 0.00 | 0.00 |
| 05/10/26 1:19:29 AM | 38 | 0.0 | 0.0 | 52 | 77 | 73.3 | 61.4 | 29.899 | 7.26 | 0.0 | 0 | 0.00 | 0.00 | 0.00 | 0.00 |
| 05/10/26 1:20:18 AM | 38 | 0.0 | 0.0 | 52 | 77 | 73.3 | 61.4 | 29.898 | 7.26 | 0.0 | 0 | 0.00 | 0.00 | 0.00 | 0.00 |
| 05/10/26 1:21:34 AM | 39 | 0.0 | 0.0 | 52 | 77 | 73.3 | 61.4 | 29.898 | 7.26 | 0.0 | 0 | 0.00 | 0.00 | 0.00 | 0.00 |
| 05/10/26 1:22:20 AM | 39 | 0.0 | 0.0 | 52 | 77 | 73.2 | 61.4 | 29.899 | 7.26 | 0.0 | 0 | 0.00 | 0.00 | 0.00 | 0.00 |
| 05/10/26 1:23:33 AM | 35 | 0.0 | 0.0 | 52 | 77 | 73.3 | 61.4 | 29.897 | 7.26 | 0.0 | 0 | 0.00 | 0.00 | 0.00 | 0.00 |
| 05/10/26 1:24:25 AM | 38 | 0.0 | 0.0 | 52 | 77 | 73.2 | 61.3 | 29.897 | 7.26 | 0.0 | 0 | 0.00 | 0.00 | 0.00 | 0.00 |
| 05/10/26 1:25:17 AM | 37 | 0.0 | 0.0 | 52 | 77 | 73.3 | 61.3 | 29.901 | 7.26 | 0.0 | 0 | 0.00 | 0.00 | 0.00 | 0.00 |
| 05/10/26 1:26:30 AM | 37 | 0.0 | 0.0 | 52 | 77 | 73.2 | 61.3 | 29.896 | 7.26 | 0.0 | 0 | 0.00 | 0.00 | 0.00 | 0.00 |
| 05/10/26 1:27:16 AM | 37 | 0.0 | 0.0 | 52 | 77 | 73.2 | 61.3 | 29.897 | 7.26 | 0.0 | 0 | 0.00 | 0.00 | 0.00 | 0.00 |
| 05/10/26 1:28:29 AM | 32 | 0.0 | 0.0 | 52 | 77 | 73.2 | 61.3 | 29.895 | 7.26 | 0.0 | 0 | 0.00 | 0.00 | 0.00 | 0.00 |
| 05/10/26 1:29:21 AM | 38 | 0.0 | 0.0 | 52 | 77 | 73.2 | 61.3 | 29.896 | 7.26 | 0.0 | 0 | 0.00 | 0.00 | 0.00 | 0.00 |
| 05/10/26 1:30:55 AM | 36 | 0.0 | 0.0 | 52 | 77 | 73.2 | 61.3 | 29.894 | 7.26 | 0.0 | 0 | 0.00 | 0.00 | 0.00 | 0.00 |
| 05/10/26 1:31:29 AM | 37 | 0.0 | 0.0 | 52 | 78 | 73.2 | 61.3 | 29.895 | 7.26 | 0.0 | 0 | 0.00 | 0.00 | 0.00 | 0.00 |
| 05/10/26 1:32:21 AM | 32 | 0.0 | 0.0 | 52 | 78 | 73.2 | 61.2 | 29.894 | 7.26 | 0.0 | 0 | 0.00 | 0.00 | 0.00 | 0.00 |
| 05/10/26 1:33:28 AM | 32 | 0.0 | 0.0 | 52 | 78 | 73.2 | 61.2 | 29.897 | 7.26 | 0.0 | 0 | 0.00 | 0.00 | 0.00 | 0.00 |
| 05/10/26 1:34:20 AM | 38 | 0.0 | 0.0 | 52 | 78 | 73.2 | 61.2 | 29.894 | 7.26 | 0.0 | 0 | 0.00 | 0.00 | 0.00 | 0.00 |
| 05/10/26 1:35:33 AM | 37 | 0.0 | 0.0 | 52 | 78 | 73.2 | 61.2 | 29.895 | 7.26 | 0.0 | 0 | 0.00 | 0.00 | 0.00 | 0.00 |
| 05/10/26 1:36:25 AM | 38 | 0.0 | 0.0 | 52 | 78 | 73.2 | 61.2 | 29.894 | 7.26 | 0.0 | 0 | 0.00 | 0.00 | 0.00 | 0.00 |
| 05/10/26 1:37:17 AM | 37 | 0.0 | 0.0 | 52 | 78 | 73.1 | 61.1 | 29.896 | 7.26 | 0.0 | 0 | 0.00 | 0.00 | 0.00 | 0.00 |
| 05/10/26 1:38:24 AM | 37 | 0.0 | 0.0 | 52 | 78 | 73.1 | 61.1 | 29.893 | 7.26 | 0.0 | 0 | 0.00 | 0.00 | 0.00 | 0.00 |
| 05/10/26 1:39:16 AM | 35 | 0.0 | 0.0 | 52 | 78 | 73.1 | 61.1 | 29.894 | 7.26 | 0.0 | 0 | 0.00 | 0.00 | 0.00 | 0.00 |
| 05/10/26 1:40:29 AM | 37 | 0.0 | 0.0 | 52 | 78 | 73.1 | 61.1 | 29.892 | 7.26 | 0.0 | 0 | 0.00 | 0.00 | 0.00 | 0.00 |
| 05/10/26 1:41:21 AM | 37 | 0.0 | 0.0 | 52 | 78 | 73.1 | 61.0 | 29.894 | 7.26 | 0.0 | 0 | 0.00 | 0.00 | 0.00 | 0.00 |
| 05/10/26 1:42:34 AM | 37 | 0.0 | 0.0 | 52 | 78 | 73.1 | 61.0 | 29.895 | 7.26 | 0.0 | 0 | 0.00 | 0.00 | 0.00 | 0.00 |
| 05/10/26 1:43:29 AM | 36 | 0.0 | 0.0 | 52 | 78 | 73.1 | 60.9 | 29.894 | 7.26 | 0.0 | 0 | 0.00 | 0.00 | 0.00 | 0.00 |
| 05/10/26 1:44:36 AM | 34 | 0.0 | 0.0 | 52 | 78 | 73.1 | 60.9 | 29.894 | 7.26 | 0.0 | 0 | 0.00 | 0.00 | 0.00 | 0.00 |
| 05/10/26 1:45:31 AM | 38 | 0.0 | 0.0 | 52 | 78 | 73.1 | 60.9 | 29.895 | 7.26 | 0.0 | 0 | 0.00 | 0.00 | 0.00 | 0.00 |
| 05/10/26 1:46:20 AM | 34 | 0.0 | 0.0 | 52 | 78 | 73.1 | 60.9 | 29.893 | 7.26 | 0.0 | 0 | 0.00 | 0.00 | 0.00 | 0.00 |
| 05/10/26 1:47:30 AM | 36 | 0.0 | 0.0 | 52 | 78 | 73.1 | 60.8 | 29.893 | 7.26 | 0.0 | 0 | 0.00 | 0.00 | 0.00 | 0.00 |
| 05/10/26 1:48:22 AM | 36 | 0.0 | 0.0 | 52 | 78 | 73.1 | 60.8 | 29.893 | 7.26 | 0.0 | 0 | 0.00 | 0.00 | 0.00 | 0.00 |
| 05/10/26 1:49:32 AM | 38 | 0.0 | 0.0 | 52 | 78 | 73.1 | 60.8 | 29.894 | 7.26 | 0.0 | 0 | 0.00 | 0.00 | 0.00 | 0.00 |
| 05/10/26 1:50:21 AM | 37 | 0.0 | 0.0 | 52 | 78 | 73.1 | 60.8 | 29.894 | 7.26 | 0.0 | 0 | 0.00 | 0.00 | 0.00 | 0.00 |
| 05/10/26 1:51:34 AM | 37 | 0.0 | 0.0 | 52 | 79 | 73.1 | 60.8 | 29.894 | 7.26 | 0.0 | 0 | 0.00 | 0.00 | 0.00 | 0.00 |
| 05/10/26 1:52:29 AM | 37 | 0.0 | 0.0 | 52 | 79 | 73.0 | 60.8 | 29.893 | 7.26 | 0.0 | 0 | 0.00 | 0.00 | 0.00 | 0.00 |
| 05/10/26 1:53:18 AM | 38 | 0.0 | 0.0 | 52 | 79 | 73.0 | 60.8 | 29.893 | 7.26 | 0.0 | 0 | 0.00 | 0.00 | 0.00 | 0.00 |
| 05/10/26 1:54:28 AM | 40 | 0.0 | 0.0 | 52 | 79 | 73.0 | 60.7 | 29.895 | 7.26 | 0.0 | 0 | 0.00 | 0.00 | 0.00 | 0.00 |
| 05/10/26 1:55:20 AM | 38 | 0.0 | 0.0 | 52 | 79 | 73.0 | 60.7 | 29.895 | 7.26 | 0.0 | 0 | 0.00 | 0.00 | 0.00 | 0.00 |
| 05/10/26 1:56:30 AM | 37 | 0.0 | 0.0 | 52 | 79 | 73.0 | 60.7 | 29.893 | 7.26 | 0.0 | 0 | 0.00 | 0.00 | 0.00 | 0.00 |
| 05/10/26 1:57:22 AM | 32 | 0.0 | 0.0 | 52 | 79 | 73.0 | 60.7 | 29.894 | 7.26 | 0.0 | 0 | 0.00 | 0.00 | 0.00 | 0.00 |
| 05/10/26 1:58:35 AM | 37 | 0.0 | 0.0 | 52 | 79 | 73.0 | 60.7 | 29.892 | 7.26 | 0.0 | 0 | 0.00 | 0.00 | 0.00 | 0.00 |
| 05/10/26 1:59:27 AM | 35 | 0.0 | 0.0 | 52 | 79 | 73.0 | 60.6 | 29.894 | 7.26 | 0.0 | 0 | 0.00 | 0.00 | 0.00 | 0.00 |
| 05/10/26 2:00:34 AM | 34 | 0.0 | 0.0 | 52 | 79 | 73.0 | 60.6 | 29.894 | 7.26 | 0.0 | 0 | 0.00 | 0.00 | 0.00 | 0.00 |
| 05/10/26 2:01:26 AM | 38 | 0.0 | 0.0 | 52 | 79 | 73.0 | 60.5 | 29.895 | 7.26 | 0.0 | 0 | 0.00 | 0.00 | 0.00 | 0.00 |
| 05/10/26 2:02:18 AM | 37 | 0.0 | 0.0 | 52 | 79 | 73.0 | 60.5 | 29.893 | 7.26 | 0.0 | 0 | 0.00 | 0.00 | 0.00 | 0.00 |
| 05/10/26 2:03:31 AM | 38 | 0.0 | 0.0 | 52 | 79 | 73.0 | 60.5 | 29.895 | 7.26 | 0.0 | 0 | 0.00 | 0.00 | 0.00 | 0.00 |
| 05/10/26 2:04:23 AM | 38 | 0.0 | 0.0 | 52 | 79 | 73.0 | 60.4 | 29.895 | 7.26 | 0.0 | 0 | 0.00 | 0.00 | 0.00 | 0.00 |
| 05/10/26 2:05:33 AM | 36 | 0.0 | 0.0 | 52 | 79 | 73.0 | 60.4 | 29.895 | 7.26 | 0.0 | 0 | 0.00 | 0.00 | 0.00 | 0.00 |
| 05/10/26 2:06:22 AM | 35 | 0.0 | 0.0 | 52 | 79 | 72.9 | 60.4 | 29.892 | 7.26 | 0.0 | 0 | 0.00 | 0.00 | 0.00 | 0.00 |
| 05/10/26 2:07:17 AM | 37 | 0.0 | 0.0 | 52 | 79 | 72.9 | 60.4 | 29.891 | 7.26 | 0.0 | 0 | 0.00 | 0.00 | 0.00 | 0.00 |
| 05/10/26 2:08:27 AM | 36 | 0.0 | 0.0 | 52 | 79 | 72.9 | 60.3 | 29.892 | 7.26 | 0.0 | 0 | 0.00 | 0.00 | 0.00 | 0.00 |
| 05/10/26 2:09:22 AM | 39 | 0.0 | 0.0 | 52 | 79 | 72.9 | 60.3 | 29.891 | 7.26 | 0.0 | 0 | 0.00 | 0.00 | 0.00 | 0.00 |
| 05/10/26 2:10:29 AM | 38 | 0.0 | 0.0 | 52 | 79 | 72.9 | 60.3 | 29.893 | 7.26 | 0.0 | 0 | 0.00 | 0.00 | 0.00 | 0.00 |
| 05/10/26 2:11:21 AM | 39 | 0.0 | 0.0 | 52 | 80 | 72.9 | 60.3 | 29.892 | 7.26 | 0.0 | 0 | 0.00 | 0.00 | 0.00 | 0.00 |
| 05/10/26 2:12:35 AM | 34 | 0.0 | 0.0 | 52 | 80 | 72.9 | 60.2 | 29.894 | 7.26 | 0.0 | 0 | 0.00 | 0.00 | 0.00 | 0.00 |
| 05/10/26 2:13:27 AM | 39 | 0.0 | 0.0 | 52 | 80 | 72.9 | 60.2 | 29.892 | 7.26 | 0.0 | 0 | 0.00 | 0.00 | 0.00 | 0.00 |
| 05/10/26 2:14:19 AM | 38 | 0.0 | 0.0 | 52 | 80 | 72.9 | 60.2 | 29.894 | 7.26 | 0.0 | 0 | 0.00 | 0.00 | 0.00 | 0.00 |
| 05/10/26 2:15:31 AM | 38 | 0.0 | 0.0 | 52 | 80 | 72.9 | 60.2 | 29.893 | 7.26 | 0.0 | 0 | 0.00 | 0.00 | 0.00 | 0.00 |
| 05/10/26 2:16:20 AM | 32 | 0.0 | 0.0 | 52 | 80 | 72.8 | 60.2 | 29.893 | 7.26 | 0.0 | 0 | 0.00 | 0.00 | 0.00 | 0.00 |
| 05/10/26 2:17:34 AM | 35 | 0.0 | 0.0 | 52 | 80 | 72.9 | 60.2 | 29.894 | 7.26 | 0.0 | 0 | 0.00 | 0.00 | 0.00 | 0.00 |
| 05/10/26 2:18:23 AM | 35 | 0.0 | 0.0 | 52 | 80 | 72.8 | 60.2 | 29.893 | 7.26 | 0.0 | 0 | 0.00 | 0.00 | 0.00 | 0.00 |
| 05/10/26 2:19:17 AM | 35 | 0.0 | 0.0 | 52 | 80 | 72.9 | 60.2 | 29.892 | 7.26 | 0.0 | 0 | 0.00 | 0.00 | 0.00 | 0.00 |
| 05/10/26 2:20:28 AM | 35 | 0.0 | 0.0 | 52 | 80 | 72.9 | 60.1 | 29.890 | 7.26 | 0.0 | 0 | 0.00 | 0.00 | 0.00 | 0.00 |
| 05/10/26 2:21:35 AM | 38 | 0.0 | 0.0 | 52 | 80 | 72.8 | 60.1 | 29.891 | 7.26 | 0.0 | 0 | 0.00 | 0.00 | 0.00 | 0.00 |
| 05/10/26 2:22:27 AM | 38 | 0.0 | 0.0 | 52 | 80 | 72.8 | 60.1 | 29.891 | 7.26 | 0.0 | 0 | 0.00 | 0.00 | 0.00 | 0.00 |
| 05/10/26 2:23:19 AM | 35 | 0.0 | 0.0 | 52 | 80 | 72.8 | 60.1 | 29.890 | 7.26 | 0.0 | 0 | 0.00 | 0.00 | 0.00 | 0.00 |
| 05/10/26 2:24:32 AM | 32 | 0.0 | 0.0 | 52 | 80 | 72.8 | 60.1 | 29.892 | 7.26 | 0.0 | 0 | 0.00 | 0.00 | 0.00 | 0.00 |
| 05/10/26 2:25:24 AM | 36 | 0.0 | 0.0 | 52 | 80 | 72.8 | 60.0 | 29.892 | 7.26 | 0.0 | 0 | 0.00 | 0.00 | 0.00 | 0.00 |
| 05/10/26 2:26:31 AM | 38 | 0.0 | 0.0 | 52 | 80 | 72.8 | 60.0 | 29.891 | 7.26 | 0.0 | 0 | 0.00 | 0.00 | 0.00 | 0.00 |
| 05/10/26 2:27:23 AM | 38 | 0.0 | 0.0 | 52 | 80 | 72.8 | 60.0 | 29.892 | 7.26 | 0.0 | 0 | 0.00 | 0.00 | 0.00 | 0.00 |
| 05/10/26 2:28:33 AM | 38 | 0.0 | 0.0 | 52 | 80 | 72.8 | 60.0 | 29.893 | 7.26 | 0.0 | 0 | 0.00 | 0.00 | 0.00 | 0.00 |
| 05/10/26 2:29:25 AM | 38 | 0.0 | 0.0 | 52 | 80 | 72.8 | 59.9 | 29.892 | 7.26 | 0.0 | 0 | 0.00 | 0.00 | 0.00 | 0.00 |
| 05/10/26 2:30:20 AM | 35 | 0.0 | 0.0 | 52 | 81 | 72.7 | 59.9 | 29.891 | 7.26 | 0.0 | 0 | 0.00 | 0.00 | 0.00 | 0.00 |
| 05/10/26 2:31:30 AM | 34 | 0.0 | 0.0 | 52 | 81 | 72.8 | 59.9 | 29.891 | 7.26 | 0.0 | 0 | 0.00 | 0.00 | 0.00 | 0.00 |
| 05/10/26 2:32:19 AM | 31 | 0.0 | 0.0 | 52 | 81 | 72.8 | 59.9 | 29.889 | 7.26 | 0.0 | 0 | 0.00 | 0.00 | 0.00 | 0.00 |
| 05/10/26 2:33:29 AM | 30 | 0.0 | 0.0 | 52 | 81 | 72.8 | 59.8 | 29.890 | 7.26 | 0.0 | 0 | 0.00 | 0.00 | 0.00 | 0.00 |
| 05/10/26 2:34:21 AM | 38 | 0.0 | 0.0 | 52 | 81 | 72.7 | 59.8 | 29.893 | 7.26 | 0.0 | 0 | 0.00 | 0.00 | 0.00 | 0.00 |
| 05/10/26 2:35:31 AM | 38 | 0.0 | 0.0 | 52 | 81 | 72.8 | 59.8 | 29.891 | 7.26 | 0.0 | 0 | 0.00 | 0.00 | 0.00 | 0.00 |
| 05/10/26 2:36:23 AM | 35 | 0.0 | 0.0 | 52 | 81 | 72.8 | 59.8 | 29.889 | 7.26 | 0.0 | 0 | 0.00 | 0.00 | 0.00 | 0.00 |
| 05/10/26 2:37:30 AM | 34 | 0.0 | 0.0 | 52 | 81 | 72.7 | 59.7 | 29.894 | 7.26 | 0.0 | 0 | 0.00 | 0.00 | 0.00 | 0.00 |
| 05/10/26 2:38:25 AM | 36 | 0.0 | 0.0 | 52 | 81 | 72.8 | 59.7 | 29.893 | 7.26 | 0.0 | 0 | 0.00 | 0.00 | 0.00 | 0.00 |
| 05/10/26 2:39:35 AM | 35 | 0.0 | 0.0 | 52 | 80 | 72.7 | 59.7 | 29.892 | 7.26 | 0.0 | 0 | 0.00 | 0.00 | 0.00 | 0.00 |
| 05/10/26 2:40:27 AM | 39 | 0.0 | 0.0 | 52 | 80 | 72.7 | 59.6 | 29.894 | 7.26 | 0.0 | 0 | 0.00 | 0.00 | 0.00 | 0.00 |
| 05/10/26 2:41:19 AM | 35 | 0.0 | 0.0 | 52 | 80 | 72.7 | 59.6 | 29.894 | 7.26 | 0.0 | 0 | 0.00 | 0.00 | 0.00 | 0.00 |
| 05/10/26 2:42:26 AM | 35 | 0.0 | 0.0 | 52 | 80 | 72.6 | 59.5 | 29.891 | 7.26 | 0.0 | 0 | 0.00 | 0.00 | 0.00 | 0.00 |
| 05/10/26 2:43:18 AM | 38 | 0.0 | 0.0 | 52 | 80 | 72.6 | 59.5 | 29.895 | 7.26 | 0.0 | 0 | 0.00 | 0.00 | 0.00 | 0.00 |
| 05/10/26 2:44:28 AM | 39 | 0.0 | 0.0 | 52 | 80 | 72.6 | 59.5 | 29.892 | 7.26 | 0.0 | 0 | 0.00 | 0.00 | 0.00 | 0.00 |
| 05/10/26 2:45:44 AM | 38 | 0.0 | 0.0 | 52 | 80 | 72.6 | 59.4 | 29.891 | 7.26 | 0.0 | 0 | 0.00 | 0.00 | 0.00 | 0.00 |
| 05/10/26 2:46:33 AM | 39 | 0.0 | 0.0 | 52 | 81 | 72.7 | 59.4 | 29.893 | 7.26 | 0.0 | 0 | 0.00 | 0.00 | 0.00 | 0.00 |
| 05/10/26 2:47:25 AM | 38 | 0.0 | 0.0 | 52 | 81 | 72.6 | 59.4 | 29.893 | 7.26 | 0.0 | 0 | 0.00 | 0.00 | 0.00 | 0.00 |
| 05/10/26 2:48:35 AM | 35 | 0.0 | 0.0 | 52 | 80 | 72.6 | 59.3 | 29.891 | 7.26 | 0.0 | 0 | 0.00 | 0.00 | 0.00 | 0.00 |
| 05/10/26 2:49:27 AM | 36 | 0.0 | 0.0 | 52 | 80 | 72.6 | 59.3 | 29.890 | 7.26 | 0.0 | 0 | 0.00 | 0.00 | 0.00 | 0.00 |
| 05/10/26 2:50:19 AM | 39 | 0.0 | 0.0 | 52 | 80 | 72.6 | 59.2 | 29.891 | 7.26 | 0.0 | 0 | 0.00 | 0.00 | 0.00 | 0.00 |
| 05/10/26 2:51:29 AM | 38 | 0.0 | 0.0 | 52 | 80 | 72.6 | 59.2 | 29.892 | 7.26 | 0.0 | 0 | 0.00 | 0.00 | 0.00 | 0.00 |
| 05/10/26 2:52:21 AM | 38 | 0.0 | 0.0 | 52 | 80 | 72.6 | 59.1 | 29.888 | 7.26 | 0.0 | 0 | 0.00 | 0.00 | 0.00 | 0.00 |
| 05/10/26 2:53:31 AM | 38 | 0.0 | 0.0 | 52 | 80 | 72.6 | 59.0 | 29.890 | 7.26 | 0.0 | 0 | 0.00 | 0.00 | 0.00 | 0.00 |
| 05/10/26 2:54:20 AM | 38 | 0.0 | 0.0 | 52 | 80 | 72.6 | 59.0 | 29.887 | 7.26 | 0.0 | 0 | 0.00 | 0.00 | 0.00 | 0.00 |
| 05/10/26 2:55:33 AM | 35 | 0.0 | 0.0 | 52 | 80 | 72.5 | 59.0 | 29.889 | 7.26 | 0.0 | 0 | 0.00 | 0.00 | 0.00 | 0.00 |
| 05/10/26 2:56:22 AM | 35 | 0.0 | 0.0 | 52 | 80 | 72.5 | 58.9 | 29.887 | 7.26 | 0.0 | 0 | 0.00 | 0.00 | 0.00 | 0.00 |
| 05/10/26 2:57:35 AM | 36 | 0.0 | 0.0 | 52 | 80 | 72.5 | 58.9 | 29.888 | 7.26 | 0.0 | 0 | 0.00 | 0.00 | 0.00 | 0.00 |
| 05/10/26 2:58:27 AM | 39 | 0.0 | 0.0 | 52 | 81 | 72.5 | 58.9 | 29.887 | 7.26 | 0.0 | 0 | 0.00 | 0.00 | 0.00 | 0.00 |
| 05/10/26 2:59:34 AM | 35 | 0.0 | 0.0 | 52 | 81 | 72.5 | 58.9 | 29.887 | 7.26 | 0.0 | 0 | 0.00 | 0.00 | 0.00 | 0.00 |
| 05/10/26 3:00:29 AM | 32 | 0.0 | 0.0 | 52 | 81 | 72.5 | 59.0 | 29.887 | 7.26 | 0.0 | 0 | 0.00 | 0.00 | 0.00 | 0.00 |
| 05/10/26 3:01:21 AM | 38 | 0.0 | 0.0 | 52 | 81 | 72.5 | 59.0 | 29.887 | 7.26 | 0.0 | 0 | 0.00 | 0.00 | 0.00 | 0.00 |
| 05/10/26 3:02:34 AM | 34 | 0.0 | 0.0 | 52 | 81 | 72.5 | 59.0 | 29.886 | 7.26 | 0.0 | 0 | 0.00 | 0.00 | 0.00 | 0.00 |
| 05/10/26 3:03:23 AM | 38 | 0.0 | 0.0 | 52 | 81 | 72.5 | 59.1 | 29.886 | 7.26 | 0.0 | 0 | 0.00 | 0.00 | 0.00 | 0.00 |
| 05/10/26 3:04:33 AM | 31 | 0.0 | 0.0 | 52 | 81 | 72.5 | 59.1 | 29.884 | 7.26 | 0.0 | 0 | 0.00 | 0.00 | 0.00 | 0.00 |
| 05/10/26 3:05:25 AM | 34 | 0.0 | 0.0 | 52 | 81 | 72.5 | 59.1 | 29.885 | 7.26 | 0.0 | 0 | 0.00 | 0.00 | 0.00 | 0.00 |
| 05/10/26 3:06:17 AM | 38 | 0.0 | 0.0 | 52 | 81 | 72.5 | 59.1 | 29.887 | 7.26 | 0.0 | 0 | 0.00 | 0.00 | 0.00 | 0.00 |
| 05/10/26 3:07:28 AM | 35 | 0.0 | 0.0 | 52 | 81 | 72.4 | 59.1 | 29.884 | 7.26 | 0.0 | 0 | 0.00 | 0.00 | 0.00 | 0.00 |
| 05/10/26 3:08:19 AM | 36 | 0.0 | 0.0 | 52 | 81 | 72.4 | 59.1 | 29.887 | 7.26 | 0.0 | 0 | 0.00 | 0.00 | 0.00 | 0.00 |
| 05/10/26 3:09:30 AM | 38 | 0.0 | 0.0 | 52 | 81 | 72.5 | 59.1 | 29.885 | 7.26 | 0.0 | 0 | 0.00 | 0.00 | 0.00 | 0.00 |
| 05/10/26 3:10:21 AM | 36 | 0.0 | 0.0 | 52 | 81 | 72.4 | 59.1 | 29.885 | 7.26 | 0.0 | 0 | 0.00 | 0.00 | 0.00 | 0.00 |
| 05/10/26 3:11:32 AM | 35 | 0.0 | 0.0 | 52 | 81 | 72.5 | 59.1 | 29.888 | 7.26 | 0.0 | 0 | 0.00 | 0.00 | 0.00 | 0.00 |
| 05/10/26 3:12:26 AM | 35 | 0.0 | 0.0 | 52 | 81 | 72.4 | 59.1 | 29.884 | 7.26 | 0.0 | 0 | 0.00 | 0.00 | 0.00 | 0.00 |
| 05/10/26 3:13:18 AM | 39 | 0.0 | 0.0 | 52 | 81 | 72.5 | 59.1 | 29.887 | 7.26 | 0.0 | 0 | 0.00 | 0.00 | 0.00 | 0.00 |
| 05/10/26 3:14:32 AM | 32 | 0.0 | 0.0 | 52 | 81 | 72.4 | 59.0 | 29.887 | 7.26 | 0.0 | 0 | 0.00 | 0.00 | 0.00 | 0.00 |
| 05/10/26 3:15:21 AM | 30 | 0.0 | 0.0 | 52 | 81 | 72.5 | 59.0 | 29.883 | 7.26 | 0.0 | 0 | 0.00 | 0.00 | 0.00 | 0.00 |
| 05/10/26 3:16:31 AM | 38 | 0.0 | 0.0 | 52 | 82 | 72.4 | 59.0 | 29.883 | 7.26 | 0.0 | 0 | 0.00 | 0.00 | 0.00 | 0.00 |
| 05/10/26 3:17:23 AM | 36 | 0.0 | 0.0 | 52 | 82 | 72.4 | 59.0 | 29.882 | 7.26 | 0.0 | 0 | 0.00 | 0.00 | 0.00 | 0.00 |
| 05/10/26 3:18:18 AM | 39 | 0.0 | 0.0 | 52 | 82 | 72.4 | 59.0 | 29.884 | 7.26 | 0.0 | 0 | 0.00 | 0.00 | 0.00 | 0.00 |
| 05/10/26 3:19:28 AM | 39 | 0.0 | 0.0 | 52 | 82 | 72.4 | 59.0 | 29.885 | 7.26 | 0.0 | 0 | 0.00 | 0.00 | 0.00 | 0.00 |
| 05/10/26 3:20:17 AM | 36 | 0.0 | 0.0 | 52 | 82 | 72.4 | 59.0 | 29.883 | 7.26 | 0.0 | 0 | 0.00 | 0.00 | 0.00 | 0.00 |
| 05/10/26 3:21:30 AM | 38 | 0.0 | 0.0 | 52 | 82 | 72.4 | 59.0 | 29.884 | 7.26 | 0.0 | 0 | 0.00 | 0.00 | 0.00 | 0.00 |
| 05/10/26 3:22:22 AM | 32 | 0.0 | 0.0 | 52 | 82 | 72.4 | 58.9 | 29.883 | 7.26 | 0.0 | 0 | 0.00 | 0.00 | 0.00 | 0.00 |
| 05/10/26 3:23:35 AM | 38 | 0.0 | 0.0 | 52 | 82 | 72.4 | 58.9 | 29.885 | 7.26 | 0.0 | 0 | 0.00 | 0.00 | 0.00 | 0.00 |
| 05/10/26 3:24:27 AM | 35 | 0.0 | 0.0 | 52 | 82 | 72.4 | 58.9 | 29.883 | 7.26 | 0.0 | 0 | 0.00 | 0.00 | 0.00 | 0.00 |
| 05/10/26 3:25:19 AM | 35 | 0.0 | 0.0 | 52 | 82 | 72.4 | 58.9 | 29.888 | 7.26 | 0.0 | 0 | 0.00 | 0.00 | 0.00 | 0.00 |
| 05/10/26 3:26:26 AM | 31 | 0.0 | 0.0 | 52 | 82 | 72.4 | 58.9 | 29.885 | 7.26 | 0.0 | 0 | 0.00 | 0.00 | 0.00 | 0.00 |
| 05/10/26 3:27:18 AM | 36 | 0.0 | 0.0 | 52 | 82 | 72.4 | 58.9 | 29.883 | 7.26 | 0.0 | 0 | 0.00 | 0.00 | 0.00 | 0.00 |
| 05/10/26 3:28:31 AM | 32 | 0.0 | 0.0 | 52 | 82 | 72.3 | 58.8 | 29.882 | 7.26 | 0.0 | 0 | 0.00 | 0.00 | 0.00 | 0.00 |
| 05/10/26 3:29:23 AM | 34 | 0.0 | 0.0 | 52 | 82 | 72.4 | 58.8 | 29.882 | 7.26 | 0.0 | 0 | 0.00 | 0.00 | 0.00 | 0.00 |
| 05/10/26 3:30:33 AM | 38 | 0.0 | 0.0 | 52 | 82 | 72.4 | 58.7 | 29.883 | 7.26 | 0.0 | 0 | 0.00 | 0.00 | 0.00 | 0.00 |
| 05/10/26 3:31:22 AM | 39 | 0.0 | 0.0 | 52 | 82 | 72.3 | 58.7 | 29.881 | 7.26 | 0.0 | 0 | 0.00 | 0.00 | 0.00 | 0.00 |
| 05/10/26 3:32:32 AM | 35 | 0.0 | 0.0 | 52 | 82 | 72.3 | 58.6 | 29.885 | 7.26 | 0.0 | 0 | 0.00 | 0.00 | 0.00 | 0.00 |
| 05/10/26 3:33:24 AM | 36 | 0.0 | 0.0 | 52 | 82 | 72.3 | 58.6 | 29.885 | 7.26 | 0.0 | 0 | 0.00 | 0.00 | 0.00 | 0.00 |
| 05/10/26 3:34:16 AM | 32 | 0.0 | 0.0 | 52 | 82 | 72.3 | 58.5 | 29.885 | 7.26 | 0.0 | 0 | 0.00 | 0.00 | 0.00 | 0.00 |
| 05/10/26 3:35:29 AM | 35 | 0.0 | 0.0 | 52 | 82 | 72.3 | 58.5 | 29.884 | 7.26 | 0.0 | 0 | 0.00 | 0.00 | 0.00 | 0.00 |
| 05/10/26 3:36:36 AM | 38 | 0.0 | 0.0 | 52 | 82 | 72.3 | 58.5 | 29.882 | 7.26 | 0.0 | 0 | 0.00 | 0.00 | 0.00 | 0.00 |
| 05/10/26 3:37:28 AM | 36 | 0.0 | 0.0 | 52 | 82 | 72.3 | 58.4 | 29.883 | 7.26 | 0.0 | 0 | 0.00 | 0.00 | 0.00 | 0.00 |
| 05/10/26 3:38:20 AM | 39 | 0.0 | 0.0 | 52 | 82 | 72.3 | 58.4 | 29.882 | 7.26 | 0.0 | 0 | 0.00 | 0.00 | 0.00 | 0.00 |
| 05/10/26 3:39:31 AM | 35 | 0.0 | 0.0 | 52 | 82 | 72.3 | 58.4 | 29.882 | 7.26 | 0.0 | 0 | 0.00 | 0.00 | 0.00 | 0.00 |
University Police wind advisory reference
For campus closure information please call the campus Emergency Hotline at (909) 537-5999
© All rights reserved. Unauthorized duplication or distribution is prohibited
Never base important decisions on this or any weather information obtained from the Internet
California State University, San Bernardino
5500 University Parkway, San Bernardino, CA. 92407
Phone: (909) 537-5108, Email: Weather Webmaster
Last Updated: